Overview Statistics Trail Chart Weather Telemetry Raw packets
 

This is the latest recevied weather packets stored in our database for station/object KN4AN. If no packets are shown the sender has not sent any weather packets the latest 10 day(s).

<< 73 74 75 76 77 78 79 >>
Time Temp. Humidity Pressure Rain* Wind** Luminosity Snow
1788026016 30° C 54% 1023.6 hPa 0 mm - 701 W/m² -
1788025715 29.44° C 58% 1023.4 hPa 0 mm - 712 W/m² -
1788025414 28.89° C 58% 1023.7 hPa 0 mm - 734 W/m² -
1788025110 28.89° C 59% 1023.8 hPa 0 mm - 170 W/m² -
1788024810 28.33° C 58% 1023.8 hPa 0 mm - 750 W/m² -
1788024506 29.44° C 57% 1023.8 hPa 0 mm - 212 W/m² -
1788024207 29.44° C 58% 1024 hPa 0 mm - 461 W/m² -
1788023901 29.44° C 55% 1023.9 hPa 0 mm - 291 W/m² -
1788023596 29.44° C 55% 1024.1 hPa 0 mm - 669 W/m² -
1788023292 28.89° C 59% 1024.1 hPa 0 mm - 844 W/m² -
1788022986 28.33° C 60% 1024 hPa 0 mm - 825 W/m² -
1788022684 28.33° C 59% 1024.1 hPa 0 mm - 694 W/m² -
1788022383 28.89° C 58% 1023.8 hPa 0 mm - 294 W/m² -
1788022082 28.89° C 59% 1024 hPa 0 mm - 774 W/m² -
1788021777 28.89° C 59% 1023.9 hPa 0 mm - 704 W/m² -
1788021475 28.89° C 58% 1023.9 hPa 0 mm - 541 W/m² -
1788021174 28.89° C 57% 1024 hPa 0 mm - 896 W/m² -
1788020865 28.89° C 58% 1024 hPa 0 mm - 687 W/m² -
1788020560 28.89° C 58% 1024 hPa 0 mm - 672 W/m² -
1788020256 28.89° C 61% 1024 hPa 0 mm - 812 W/m² -
1788019952 27.78° C 61% 1023.9 hPa 0 mm - 827 W/m² -
1788019652 27.22° C 64% 1024.1 hPa 0 mm - 787 W/m² -
1788019351 27.78° C 62% 1024 hPa 0 mm - 219 W/m² -
1788019050 28.33° C 61% 1023.8 hPa 0 mm - 808 W/m² -
1788018750 27.78° C 64% 1024 hPa 0 mm - 828 W/m² -

* Rain latest hour (hover to see other rain measurements)
** Current wind speed in m/s (hover to see current wind gust speed)